New Orleans Lakefront, LA

6:46 AM CDT on August 19, 2017 (GMT -0500)
Lakefront

Weather History for KNEW - November, 2012

Change the Weather History Date:

Thursday, November 15, 2012

  Actual Average Record
Temperature  
Mean Temperature 55 °F 63 °F  
Max Temperature 64 °F 72 °F 86 °F (1951)
Min Temperature 46 °F 54 °F 29 °F (1969)
Degree Days  
Heating Degree Days 10 4  
Month to date heating degree days 67 48  
Since 1 July heating degree days 94 73  
Cooling Degree Days 0 2  
Month to date cooling degree days 36 44  
Year to date cooling degree days 3374 2953  
Growing Degree Days 5 (Base 50)    
Moisture  
Dew Point 46 °F    
Average Humidity 67    
Maximum Humidity 86    
Minimum Humidity 48    
Precipitation  
Precipitation 0.00 in 0.16 in 1.73 in (2006)
Month to date precipitation 1.46 2.13  
Year to date precipitation 62.11 54.85  
Snow  
Snow 0.00 in - - ()
Month to date snowfall 0.0  
Since 1 July snowfall 0.0  
Since 1 September snowfall 0.0  
Snow Depth 0.00 in    
Sea Level Pressure  
Sea Level Pressure 30.23 in    
Wind  
Wind Speed 6 mph (North)    
Max Wind Speed 16 mph    
Max Gust Speed 25 mph    
Visibility 10 miles    
Events      
T = Trace of Precipitation, MM = Missing Value Source: NWS Daily Summary

Daily Weather History Graph

Daily Weather History Graph

Search for Another Location

Airport or City:

Trip Planner

Search our weather history database for the weather conditions in past years. The results will help you decide how hot, cold, wet, or windy it might be!

Date:

Astronomy

Nov. 15, 2012 Rise Set
Actual Time 6:25 AM CST 5:03 PM CST
Civil Twilight 6:00 AM CST 5:29 PM CST
Nautical Twilight 5:31 AM CST 5:57 PM CST
Astronomical Twilight 5:02 AM CST 6:26 PM CST
Moon 8:16 AM CST (11/15) 6:59 PM CST (11/15)
Length of Visible Light 11h 28m
Length of Day
10h 37m
Waxing Crescent, 5% of the Moon is Illuminated
Nov 15
Waxing Crescent
Nov 20
First Quarter
Nov 28
Full
Dec 6
Last Quarter
Dec 13
New

Hourly Weather History & Observations

Time (CST) Temp. Dew Point Humidity Pressure Visibility Wind Dir Wind Speed Gust Speed Precip Events Conditions
12:53 AM 52.0 °F 41.0 °F 66% 30.24 in 10.0 mi NNE 18.4 mph - N/A   Clear
1:53 AM 52.0 °F 42.1 °F 69% 30.23 in 10.0 mi NNE 17.3 mph - N/A   Clear
2:53 AM 51.1 °F 42.1 °F 71% 30.22 in 10.0 mi NNE 18.4 mph - N/A   Clear
3:53 AM 51.1 °F 43.0 °F 74% 30.22 in 10.0 mi NE 15.0 mph - N/A   Clear
4:53 AM 51.1 °F 43.0 °F 74% 30.22 in 10.0 mi NE 16.1 mph - N/A   Clear
5:53 AM 50.0 °F 43.0 °F 77% 30.23 in 10.0 mi NE 15.0 mph - N/A   Clear
6:53 AM 51.1 °F 42.1 °F 71% 30.25 in 10.0 mi NE 15.0 mph - N/A   Clear
7:53 AM 51.1 °F 43.0 °F 74% 30.27 in 10.0 mi NE 16.1 mph - N/A   Clear
8:53 AM 53.1 °F 45.0 °F 74% 30.28 in 10.0 mi NE 11.5 mph - N/A   Clear
9:53 AM 55.0 °F 45.0 °F 69% 30.29 in 10.0 mi NE 10.4 mph - N/A   Clear
10:53 AM 57.0 °F 45.0 °F 64% 30.27 in 10.0 mi NNE 6.9 mph - N/A   Clear
11:53 AM 59.0 °F 46.0 °F 62% 30.24 in 10.0 mi North 4.6 mph - N/A   Clear
12:53 PM 57.9 °F 45.0 °F 62% 30.22 in 10.0 mi WNW 3.5 mph - N/A   Clear
1:53 PM 59.0 °F 46.0 °F 62% 30.20 in 10.0 mi West 6.9 mph - N/A   Clear
2:53 PM 60.1 °F 46.0 °F 60% 30.19 in 10.0 mi West 8.1 mph - N/A   Clear
3:53 PM 60.1 °F 46.0 °F 60% 30.18 in 10.0 mi West 8.1 mph - N/A   Clear
4:53 PM 59.0 °F 46.9 °F 64% 30.19 in 10.0 mi West 6.9 mph - N/A   Clear
5:53 PM 57.9 °F 48.0 °F 70% 30.19 in 10.0 mi WNW 6.9 mph - N/A   Clear
6:53 PM 59.0 °F 50.0 °F 72% 30.21 in 10.0 mi WNW 4.6 mph - N/A   Clear
7:53 PM 59.0 °F 50.0 °F 72% 30.23 in 10.0 mi NNE 3.5 mph - N/A   Clear
8:53 PM 57.9 °F 50.0 °F 75% 30.24 in 10.0 mi North 8.1 mph - N/A   Clear
9:53 PM 57.9 °F 50.0 °F 75% 30.25 in 10.0 mi NNE 8.1 mph - N/A   Clear
10:53 PM 57.9 °F 48.0 °F 70% 30.24 in 10.0 mi NE 10.4 mph - N/A   Clear
11:53 PM 57.0 °F 48.9 °F 74% 30.24 in 10.0 mi NE 9.2 mph - N/A   Clear